Theta_e
318 316 316 314 305 301 296 298 303 303 304 308 308 308 307 307 306 303 321 330 334 335 341 345 346 347 348 347 347 346 345 343 341 341 341 343 345 346 346 345 346 347 344 343 342 341 344 343 343
314 316 314 308 301 295 296 301 302 305 308 309 309 308 307 307 311 314 322 330 333 336 341 344 344 346 347 347 347 346 346 345 344 342 341 340 341 342 343 342 344 344 342 342 342 341 342 342 341
315 315 310 305 298 295 297 301 305 307 308 308 308 309 307 307 310 317 323 333 334 336 341 343 342 346 347 347 347 347 347 346 345 344 343 342 341 342 343 343 347 347 345 343 343 343 341 341 340
310 313 310 301 298 300 303 305 306 306 309 308 309 307 312 311 312 320 324 333 334 336 339 341 343 347 347 347 347 347 347 347 345 345 344 343 343 344 344 345 347 348 349 348 346 343 342 341 340
308 307 301 298 299 302 305 308 307 307 308 309 310 309 310 316 319 318 321 331 332 334 337 340 342 345 347 347 347 345 346 347 345 344 344 344 343 345 345 345 345 346 347 347 346 344 340 340 338
301 303 296 295 300 304 306 309 308 308 309 310 310 309 312 319 314 314 318 327 332 333 336 338 335 339 343 345 343 342 343 346 345 344 344 344 343 343 344 345 345 345 346 345 345 344 342 341 337
297 297 294 295 297 299 304 308 307 308 308 309 313 307 312 315 311 318 321 326 332 334 335 337 339 339 334 339 340 341 342 344 343 343 342 341 341 342 342 342 343 345 346 346 344 343 342 340 337
297 296 293 293 293 294 302 306 308 307 307 311 313 308 308 313 311 317 321 324 328 331 334 335 337 340 340 344 333 335 338 340 340 340 338 335 336 337 338 336 340 344 345 345 343 342 341 339 334
298 289 286 289 291 292 297 295 298 302 302 300 307 307 308 304 308 308 306 308 320 327 330 334 335 337 339 339 338 331 332 334 334 335 332 332 342 342 339 336 337 342 342 342 342 340 338 333 327
290 286 287 291 292 290 291 291 292 294 293 293 294 297 301 302 299 300 301 304 312 318 327 331 336 335 337 336 337 339 340 342 342 342 341 341 341 341 339 332 331 335 335 338 339 337 330 321 320
289 284 289 289 290 288 289 289 291 290 288 291 292 295 296 297 298 297 300 305 309 311 317 328 333 336 336 335 336 336 339 339 340 340 341 341 339 337 339 340 338 340 328 335 335 328 318 317 313
285 287 287 289 289 288 287 289 288 289 290 294 294 294 294 294 295 296 297 297 299 300 303 315 328 334 336 335 334 335 335 337 336 337 338 337 336 334 335 336 336 336 331 330 326 318 314 313 308
284 285 287 288 287 287 288 286 287 288 292 293 293 293 293 294 295 296 296 296 297 298 301 306 324 331 334 335 334 335 335 335 336 335 336 336 335 332 333 333 333 333 325 323 317 314 313 310 305
284 286 285 286 285 286 284 285 286 288 289 289 290 291 292 292 293 294 295 296 297 298 299 302 314 326 331 334 334 334 335 335 336 335 334 334 334 331 330 330 329 327 326 321 317 314 312 309 304
285 281 283 283 283 282 284 284 283 285 286 285 286 288 290 292 293 293 295 295 296 297 298 299 301 318 328 331 333 334 334 334 334 335 335 334 333 331 329 328 327 325 322 317 312 311 308 304 301
278 278 275 280 279 281 281 278 281 283 283 282 283 285 287 290 292 289 289 290 292 292 292 295 297 302 318 328 331 333 332 333 333 335 335 334 332 331 329 327 326 323 317 315 312 307 306 303 301
272 269 271 273 278 277 276 272 280 282 281 280 281 281 282 282 284 285 286 287 289 289 290 290 293 294 297 311 328 330 332 333 334 333 334 334 332 329 327 326 325 319 317 314 311 305 304 302 300
267 267 269 269 273 274 273 273 276 281 281 278 280 279 279 279 280 282 283 284 285 286 287 287 289 291 293 296 313 327 329 332 332 331 332 332 331 328 326 323 322 318 315 312 310 305 300 300 301
269 268 266 269 274 272 271 271 277 279 280 278 279 278 279 278 280 280 281 281 282 283 283 284 285 287 290 291 294 317 323 327 329 329 330 331 329 326 326 322 317 316 315 312 310 305 301 297 300
270 267 266 270 274 273 271 271 277 279 279 280 279 278 278 278 279 278 279 279 279 280 280 282 283 284 286 290 292 296 302 325 328 329 330 330 326 324 324 322 316 315 315 312 308 304 299 297 298
268 268 267 267 271 273 271 270 275 278 279 280 280 280 279 278 277 277 277 277 278 278 278 280 281 283 284 287 289 292 297 320 324 327 327 326 325 323 323 321 316 314 315 309 308 306 304 298 296
267 271 270 269 268 265 271 264 270 275 276 277 278 278 278 278 278 278 277 276 276 277 278 278 279 281 283 285 285 287 290 293 315 323 327 325 324 321 321 320 316 314 314 311 309 308 306 304 297
269 272 271 270 268 267 269 265 270 274 272 274 277 278 278 278 278 277 277 276 276 276 277 277 278 279 281 282 284 286 288 294 305 321 324 323 321 319 320 320 317 313 313 312 310 308 305 303 300
274 271 271 270 268 260 268 266 265 271 272 274 277 277 278 278 277 278 278 278 276 277 276 276 276 277 279 281 283 285 287 290 296 314 318 318 318 318 317 317 316 313 312 311 309 308 307 303 302
271 266 260 260 258 260 267 265 266 274 276 276 275 276 277 278 277 277 277 277 277 276 276 275 275 275 278 280 282 284 286 289 293 306 317 315 314 314 313 314 313 312 311 311 308 306 306 303 300
269 264 259 256 259 260 267 264 268 275 276 277 277 276 277 277 277 277 277 277 277 278 277 276 275 274 277 278 280 283 285 287 290 295 314 314 314 313 312 311 311 311 310 309 307 306 305 303 302
265 262 267 256 262 259 264 266 271 275 274 274 274 275 275 276 277 277 277 277 277 277 277 276 275 275 276 277 279 281 283 285 288 290 295 308 311 310 308 310 309 309 307 306 305 305 303 303 302
266 269 260 260 250 252 261 262 264 270 271 273 273 273 274 275 276 276 277 277 277 277 278 277 276 275 275 277 278 280 281 283 285 289 289 291 298 302 303 304 305 305 305 304 303 303 302 301 301
265 263 264 263 260 256 256 260 263 269 272 272 272 274 273 274 275 275 276 277 277 277 277 276 276 275 275 275 277 278 279 280 282 284 287 289 292 296 299 300 300 300 301 301 301 300 299 299 298
265 262 263 256 256 261 261 259 271 271 273 273 273 274 274 275 274 274 275 276 276 275 276 275 275 275 275 276 276 277 278 279 280 281 284 287 289 291 295 297 297 298 298 298 298 297 298 297 296
Wind_Speed
4 2 2 4 3 4 2 4 2 4 3 3 1 3 7 4 5 4 0 7 5 13 17 16 17 19 20 19 18 18 18 18 19 18 18 17 17 17 17 15 13 13 14 14 13 13 13 13 12
3 1 4 2 3 1 4 4 7 8 6 4 2 2 0 5 3 7 5 3 5 11 15 17 17 17 17 18 19 19 18 18 18 19 18 18 17 17 17 16 14 13 15 14 14 13 14 13 13
1 3 3 3 3 5 5 7 10 4 2 3 3 2 2 4 4 3 3 9 7 10 15 15 15 17 18 18 18 18 18 18 17 17 18 18 18 16 15 15 14 15 16 17 16 15 14 14 13
2 3 3 2 10 7 7 6 4 3 2 3 2 6 4 6 3 2 2 9 8 11 14 15 21 21 20 18 18 18 18 17 17 17 17 18 17 16 16 15 13 12 15 16 15 15 14 13 12
4 2 1 4 6 6 7 3 2 7 2 3 4 5 5 7 6 8 6 6 8 8 9 10 16 20 21 21 20 19 18 17 18 18 18 17 17 16 16 15 13 11 12 13 13 14 14 13 13
3 2 1 7 10 3 2 5 3 5 5 6 3 4 9 1 8 10 7 4 4 7 8 8 10 11 14 17 22 22 21 18 18 18 18 17 17 16 16 15 14 12 13 14 16 15 13 12 13
5 3 3 5 10 9 3 5 4 6 6 6 1 2 7 4 7 7 8 4 4 3 6 7 9 12 10 12 15 19 22 19 19 18 17 17 16 16 16 15 14 13 13 13 11 14 15 13 12
5 4 1 4 6 8 4 2 1 2 4 4 2 4 5 2 6 6 5 5 3 4 6 6 7 11 15 12 10 10 14 16 16 16 14 13 12 13 13 12 12 14 13 10 12 15 15 14 12
3 4 3 6 4 6 4 6 5 3 6 4 2 5 8 10 11 12 13 12 6 3 4 4 6 8 12 15 10 10 12 12 13 13 13 12 10 12 13 11 11 12 12 10 14 16 13 12 11
4 4 9 4 2 6 9 2 5 2 6 17 15 9 10 9 7 10 15 14 9 7 4 7 10 9 10 11 14 10 10 11 11 12 13 10 12 11 11 10 12 11 12 15 16 16 13 11 6
2 5 1 3 4 7 10 14 2 5 4 8 12 18 11 15 15 9 13 12 10 11 10 7 10 11 11 10 9 6 6 8 9 13 12 12 8 7 8 6 7 7 11 7 10 9 5 8 5
1 3 4 6 9 7 10 12 12 10 10 14 14 13 9 16 17 16 14 14 15 14 14 11 11 11 12 9 9 9 8 8 9 12 14 11 8 9 8 7 7 8 6 7 7 5 6 6 5
2 4 7 7 10 9 11 9 17 18 16 12 14 14 16 18 18 15 10 10 13 14 16 14 9 12 12 13 10 10 10 10 12 10 12 11 11 10 9 8 8 8 7 7 6 6 6 6 6
4 5 9 8 13 7 18 12 1 11 20 20 20 20 19 18 18 16 17 18 14 15 16 15 9 13 12 13 15 11 10 11 11 10 12 15 12 10 10 9 9 7 9 8 7 8 7 6 5
4 5 3 10 14 8 19 4 8 17 29 24 22 22 21 19 17 16 19 20 20 18 19 18 13 12 12 14 14 12 11 11 11 11 13 15 15 14 13 10 10 9 7 9 7 7 6 5 4
7 6 7 5 20 8 9 5 21 31 26 30 27 21 21 23 20 27 24 22 22 20 21 20 18 19 13 13 12 11 14 11 11 10 11 15 16 16 13 11 11 10 8 8 8 7 7 6 6
12 5 6 14 16 15 16 15 18 27 25 23 25 24 22 21 26 25 23 21 21 20 21 22 20 18 20 17 12 13 14 13 11 11 11 15 17 16 14 11 10 11 9 9 9 5 6 7 6
5 5 6 11 9 9 14 11 21 19 19 14 16 19 19 19 21 22 25 21 20 20 21 21 18 19 19 14 13 11 11 12 12 12 12 14 14 18 15 11 11 11 10 9 8 9 4 4 7
4 4 11 10 4 14 7 13 8 12 14 16 15 16 21 20 17 19 20 21 22 20 21 22 22 21 16 13 11 10 11 11 12 12 16 15 15 15 17 11 12 13 14 15 14 8 9 2 7
2 5 6 13 9 11 5 11 2 9 11 11 14 17 18 23 25 19 21 22 21 21 21 21 21 21 17 11 12 9 11 11 12 11 13 14 15 16 16 14 13 14 11 12 13 12 6 3 9
3 1 5 9 14 4 5 2 5 6 11 15 16 14 16 18 21 24 22 21 21 21 22 20 20 20 18 18 13 11 12 11 10 10 9 11 16 16 17 15 14 14 13 12 16 15 16 8 7
4 3 12 15 7 3 4 5 4 6 10 16 18 17 16 17 19 19 21 21 21 21 20 20 20 20 17 19 15 16 12 13 13 11 11 10 16 15 17 17 16 15 12 14 14 13 14 11 11
8 14 12 9 3 1 3 1 3 4 12 18 18 17 15 15 16 18 19 19 18 19 19 19 20 19 20 19 17 13 15 12 13 11 11 13 13 16 17 17 16 14 12 14 16 15 14 10 8
14 5 1 2 3 3 4 4 4 4 7 15 15 15 15 16 16 16 17 17 17 17 18 19 21 20 20 19 19 18 18 17 13 15 9 9 9 10 14 14 14 14 13 14 14 15 18 16 13
12 4 5 7 7 5 1 3 8 3 4 8 11 14 13 14 15 16 18 20 20 22 21 19 21 22 21 20 18 18 18 18 17 17 9 10 8 7 9 12 12 11 13 14 13 13 15 15 13
6 4 5 4 5 7 8 6 6 5 4 4 5 6 12 13 13 15 16 16 18 20 21 20 21 22 22 21 20 17 18 12 12 13 10 9 9 9 9 10 11 12 13 11 12 11 11 12 11
3 5 4 4 2 2 6 7 5 2 4 7 10 9 11 12 12 14 15 15 16 18 19 19 20 21 21 21 18 17 17 18 16 17 15 5 6 8 11 13 13 13 12 13 13 10 12 12 13
6 4 2 4 4 7 7 8 9 3 6 8 10 7 10 11 11 12 13 14 13 15 16 18 18 19 19 19 18 16 17 18 17 15 15 14 9 2 6 9 9 9 11 12 13 10 11 12 10
1 2 3 3 4 4 6 11 8 7 3 5 7 5 6 9 8 9 11 12 13 14 15 17 17 19 19 19 19 19 18 18 17 15 15 14 12 9 1 3 5 8 10 10 10 9 9 11 11
3 6 5 6 5 4 2 15 6 7 6 7 6 7 6 5 6 5 7 9 12 13 13 14 16 16 17 17 17 18 18 18 18 18 18 17 14 12 9 2 3 4 6 8 9 10 10 12 11
Wind_Direction
349 15 67 42 43 63 306 278 238 280 288 167 195 227 257 237 200 226 227 193 187 166 172 181 183 181 177 175 172 170 169 168 169 168 167 167 166 164 162 158 156 155 155 154 154 153 148 143 141
319 316 45 84 114 168 257 239 238 224 225 315 296 170 173 287 256 276 351 166 194 175 177 181 182 187 185 178 175 174 175 173 172 171 170 171 172 173 172 169 168 169 169 165 157 152 147 143 142
290 31 88 134 146 180 214 225 233 265 225 226 317 234 241 240 269 258 291 163 176 185 185 183 182 188 188 185 182 180 179 178 177 175 174 173 174 174 174 172 174 176 169 168 163 153 148 146 144
23 13 38 182 225 237 209 204 213 288 309 204 208 283 277 238 234 208 359 169 176 192 191 195 183 188 190 189 186 185 184 181 179 179 179 179 177 176 175 174 178 177 171 169 164 160 157 150 144
25 49 158 251 238 244 244 250 202 263 329 201 189 258 252 288 303 11 326 202 196 191 205 214 207 194 190 189 187 190 192 187 183 183 183 181 179 179 177 176 177 172 166 166 163 163 166 162 153
56 78 142 246 250 225 232 201 218 250 240 268 301 299 258 18 32 335 343 263 228 201 190 197 214 221 208 199 194 197 197 190 189 187 185 184 182 181 180 180 180 179 177 177 177 166 164 156 161
111 92 224 275 275 283 271 178 201 247 276 284 258 253 262 25 353 349 357 353 272 248 213 204 202 208 221 211 203 199 198 191 189 190 190 187 184 184 184 184 185 187 191 196 181 167 156 158 161
102 91 323 275 287 281 23 28 39 105 290 316 311 250 278 354 345 337 3 6 307 264 248 230 214 211 214 211 211 207 202 191 191 188 187 186 183 185 185 182 189 192 203 204 185 164 160 158 160
123 81 228 237 217 261 360 31 311 341 298 294 241 292 297 325 346 355 346 338 333 304 280 268 242 226 223 226 209 204 201 196 192 190 188 184 193 194 193 191 188 195 198 186 160 158 150 146 145
106 144 220 227 300 312 304 164 306 302 306 288 301 285 305 325 7 341 322 312 304 301 258 220 231 229 228 228 227 212 208 207 205 200 197 197 197 193 194 193 192 198 186 166 157 149 138 136 155
90 191 242 297 328 11 308 316 345 291 284 248 283 299 315 309 309 303 296 290 290 297 294 241 222 218 221 226 223 216 213 211 210 207 202 201 195 196 194 193 198 189 156 164 152 143 141 158 163
1 265 22 320 336 325 303 302 300 254 265 283 288 293 317 309 307 303 298 298 302 303 286 286 242 220 218 217 218 219 209 212 216 212 202 204 200 197 194 192 188 180 162 159 157 149 150 161 169
134 339 335 305 295 295 319 292 287 310 316 321 331 339 337 328 318 315 303 288 292 296 294 284 253 230 222 215 219 218 214 210 215 212 209 203 204 203 192 190 181 180 153 160 155 147 163 171 177
308 275 300 355 348 358 347 304 342 18 358 346 348 342 337 337 337 333 333 323 311 303 299 299 267 247 234 224 220 221 222 218 214 209 204 204 210 199 198 185 186 189 168 164 160 169 175 180 178
299 326 346 33 355 21 336 29 80 355 344 336 335 325 322 316 315 317 308 318 333 331 325 322 309 277 245 231 229 224 225 221 217 210 207 198 209 203 197 187 186 182 173 155 146 159 159 166 180
28 58 360 14 8 360 23 274 347 345 334 327 332 342 331 323 330 14 1 357 351 349 349 344 349 327 283 247 239 231 228 223 217 211 205 200 197 201 195 189 190 173 160 163 162 161 173 180 186
24 329 338 323 349 350 27 318 326 319 323 330 358 8 18 11 353 357 354 353 350 349 348 344 347 343 340 313 257 242 235 231 224 214 209 202 195 194 188 190 185 169 167 172 166 164 163 183 184
328 328 291 298 317 360 309 302 324 4 34 16 354 352 7 6 357 347 345 352 351 349 346 344 344 343 338 324 300 255 243 235 222 224 216 202 197 190 189 185 177 175 169 171 172 168 154 170 181
218 260 290 284 323 356 8 309 40 19 32 11 9 5 357 357 350 350 349 347 348 349 347 345 341 341 340 335 329 299 249 242 232 224 223 205 199 192 192 183 173 178 180 182 177 156 170 143 159
261 299 307 302 336 329 343 303 283 37 31 21 4 1 2 349 349 356 352 349 350 342 342 340 339 334 336 327 323 299 312 255 239 228 212 211 193 188 193 186 179 183 184 180 177 170 152 125 172
301 223 307 290 326 332 323 297 329 7 23 8 13 6 360 359 347 345 350 350 344 344 340 337 334 331 331 333 322 318 305 276 242 228 211 197 190 192 194 187 182 183 183 180 184 180 171 168 193
304 166 311 300 327 321 64 287 295 324 349 4 356 356 353 351 348 345 344 348 346 342 336 333 331 333 332 333 329 324 302 289 281 231 216 196 191 192 192 189 187 187 187 186 189 190 189 177 173
258 317 287 287 211 336 11 3 264 323 348 348 343 344 346 351 347 344 343 340 343 343 342 336 331 333 335 335 332 324 314 300 287 257 213 204 194 191 197 197 190 189 190 193 189 184 183 190 165
305 327 350 116 110 36 165 55 284 12 318 327 334 344 343 347 346 345 343 343 344 347 348 344 339 336 335 335 333 330 322 316 299 273 214 195 196 190 198 196 187 188 193 192 191 192 190 187 191
345 12 358 357 9 244 25 350 248 233 287 302 327 335 338 344 343 343 345 346 348 347 350 348 345 338 336 336 336 336 330 321 312 305 225 187 183 190 195 189 191 192 195 195 189 188 194 191 187
2 58 121 255 313 302 322 227 257 189 224 287 291 318 337 339 341 341 343 341 343 345 347 349 347 340 340 339 339 341 339 332 325 324 273 191 191 184 172 186 193 195 194 191 189 193 192 190 193
306 51 190 90 9 316 274 291 301 190 332 349 356 350 340 334 337 337 340 345 342 342 346 349 347 342 343 343 339 345 347 344 342 341 347 316 208 176 176 186 191 195 192 187 185 190 190 189 191
114 190 107 37 32 298 279 278 246 290 336 331 336 322 329 327 335 337 339 342 341 345 342 346 350 346 343 346 346 345 352 350 345 347 356 346 353 25 169 184 193 192 188 187 187 190 189 188 196
91 104 61 117 146 202 303 263 220 197 218 279 289 301 303 319 322 328 332 339 341 344 349 347 350 347 349 351 353 346 355 357 352 353 356 356 356 349 64 180 184 188 188 182 181 178 178 187 189
154 188 143 128 234 224 218 266 238 204 191 219 295 302 288 301 298 307 322 335 341 342 345 350 347 349 347 348 354 352 355 0 0 357 354 359 3 1 1 353 173 174 183 178 175 170 177 186 186